PDT,Max TemperatureF,Mean TemperatureF,Min TemperatureF,Max Dew PointF,MeanDew PointF,Min DewpointF,Max Humidity, Mean Humidity, Min Humidity, Max Sea Level PressureIn, Mean Sea Level PressureIn, Min Sea Level PressureIn, Max VisibilityMiles, Mean VisibilityMiles, Min VisibilityMiles, Max Wind SpeedMPH, Mean Wind SpeedMPH, Max Gust SpeedMPH,PrecipitationIn, CloudCover, Events, WindDirDegrees
2012-10-1,84,62,39,27,23,18,48,30,11,30.28,30.17,30.04,,,,12,5,13,0.00,,,158
2012-10-2,84,63,42,30,21,5,40,24,8,30.05,29.98,29.90,,,,21,7,29,0.00,,,234
2012-10-3,63,46,29,17,3,-6,38,22,6,30.22,30.15,29.98,,,,20,7,26,0.00,,,30
2012-10-4,66,44,21,8,1,-6,31,19,7,30.23,30.17,30.10,,,,13,4,15,0.00,,,35
2012-10-5,63,43,23,14,9,2,38,26,14,30.27,30.22,30.16,,,,12,5,16,0.00,,,35
2012-10-6,63,41,19,10,5,-1,41,25,8,30.29,30.22,30.16,,,,13,6,17,0.00,,,44
2012-10-7,66,43,20,11,4,1,45,27,8,30.23,30.14,30.05,,,,10,5,14,0.00,,,50
2012-10-8,74,49,24,10,4,-2,35,21,6,30.06,29.99,29.90,,,,10,3,12,0.00,,,140
2012-10-9,73,50,27,17,8,-1,32,21,9,30.06,30.00,29.95,,,,14,5,18,0.00,,,69
2012-10-10,75,53,31,22,16,11,49,30,11,30.04,29.95,29.86,,,,10,4,13,0.00,,,96
2012-10-11,78,55,31,23,17,9,39,25,10,29.96,29.88,29.80,,,,13,6,16,0.00,,,51
2012-10-12,79,57,35,28,20,8,45,27,9,29.97,29.85,29.80,,,,16,6,21,0.00,,,246
2012-10-13,68,55,41,39,36,25,71,50,28,30.26,30.18,29.98,,,,14,6,18,0.00,,,50
2012-10-14,77,56,34,37,32,28,76,47,18,30.29,30.16,29.98,,,,18,8,24,0.00,,,189
2012-10-15,75,63,51,54,39,30,86,57,27,30.04,29.96,29.88,,,,17,10,23,0.04,,,218
2012-10-16,70,52,34,53,38,23,86,55,24,30.16,29.92,29.76,,,,33,15,43,0.02,,,258
2012-10-17,60,41,21,27,22,17,81,52,23,30.30,30.25,30.17,,,,12,5,14,0.00,,,64
2012-10-18,71,48,25,21,16,10,63,37,11,30.34,30.21,30.05,,,,12,3,13,0.00,,,176
2012-10-19,76,57,37,36,26,12,40,30,20,30.04,29.91,29.74,,,,24,10,35,0.00,,,203
2012-10-20,65,52,38,45,33,20,77,48,19,29.82,29.76,29.70,,,,23,10,33,0.00,,,285
2012-10-21,56,44,32,28,24,20,66,47,28,29.88,29.81,29.74,,,,13,5,17,0.00,,,40
2012-10-22,49,42,34,37,28,19,92,65,38,29.74,29.66,29.57,,,,33,11,45,0.07,,,195
2012-10-23,47,34,20,32,26,18,96,65,34,30.00,29.88,29.73,,,,28,11,36,0.07,,,191
2012-10-24,45,32,18,32,25,17,92,71,49,30.17,30.05,29.97,,,,17,6,22,0.02,,,195
2012-10-25,47,35,22,30,24,18,100,67,33,30.48,30.35,30.18,,,,14,5,,0.00,,,104
2012-10-26,58,39,20,30,23,17,88,58,28,30.47,30.29,30.14,,,,23,7,26,0.00,,,186
2012-10-27,60,44,28,41,31,22,82,54,26,30.19,30.13,30.08,,,,17,8,22,0.00,,,169
2012-10-28,70,57,44,40,38,35,83,56,28,30.09,30.02,29.96,,,,18,11,24,0.00,,,169
2012-10-29,72,57,42,37,31,26,66,43,20,30.13,30.06,29.97,,,,23,10,29,0.00,,,206
2012-10-30,73,53,32,30,25,19,75,46,16,30.13,30.02,29.91,,,,17,9,22,0.00,,,162
2012-10-31,68,58,48,28,23,21,35,26,17,29.94,29.86,29.80,,,,22,9,30,0.00,,,164